| time (UTC) | temp F | wind direction | speed MPH | gust MPH | rain 1hr in | rain 24hr in | rain mn in | humidity % | barometer mb |
| 20260831054510 | 58 | 201 | 3.0 | 8.0 | 0.02 | 0.02 | 0.02 | 81 | 1007.6 |
| 20260831054506 | 58 | 201 | 3.0 | 8.0 | 0.02 | 0.02 | 0.02 | 81 | 1022.0 |
| 20260831054007 | 58 | 126 | 3.0 | 6.0 | 0.02 | 0.02 | 0.02 | 81 | 1021.8 |
| 20260831053505 | 58 | 126 | 2.0 | 4.0 | 0.02 | 0.02 | 0.02 | 82 | 1021.6 |
| 20260831053006 | 58 | 126 | 3.0 | 4.0 | 0.02 | 0.02 | 0.02 | 82 | 1021.6 |
| 20260831053004 | 58 | 126 | 2.0 | 4.0 | 0.02 | 0.02 | 0.02 | 82 | 1007.1 |
| 20260831051508 | 59 | 126 | 4.0 | 10.0 | 0.02 | 0.02 | 0.02 | 80 | 1007.3 |
| 20260831051506 | 59 | 126 | 5.0 | 10.0 | 0.02 | 0.02 | 0.02 | 80 | 1021.7 |
| 20260831051007 | 60 | 127 | 9.0 | 10.0 | 0.02 | 0.02 | 0.02 | 78 | 1021.9 |
| 20260831050505 | 61 | 296 | 2.0 | 5.0 | 0.02 | 0.02 | 0.02 | 74 | 1022.7 |
| 20260831050006 | 62 | 296 | 3.0 | 6.0 | 0.01 | 0.01 | 0.01 | 72 | 1022.6 |
| 20260831050004 | 62 | 296 | 3.0 | 6.0 | 0.01 | 0.01 | 0.01 | 72 | 1008.2 |
| 20260831045504 | 63 | 199 | 1.0 | 11.0 | 0.00 | 0.00 | 0.00 | 68 | 1023.3 |
| 20260831045005 | 64 | 249 | 3.0 | 14.0 | 0.00 | 0.00 | 0.00 | 64 | 1023.4 |
| 20260831044506 | 64 | 203 | 5.0 | 13.0 | 0.00 | 0.00 | 0.00 | 61 | 1023.4 |
| 20260831044504 | 64 | 203 | 5.0 | 13.0 | 0.00 | 0.00 | 0.00 | 61 | 1009.1 |
| 20260831044006 | 64 | 257 | 7.0 | 14.0 | 0.00 | 0.00 | 0.00 | 60 | 1023.2 |
| 20260831043506 | 64 | 240 | 5.0 | 14.0 | 0.00 | 0.00 | 0.00 | 63 | 1022.9 |
| 20260831043003 | 63 | 192 | 6.0 | 11.0 | 0.00 | 0.00 | 0.00 | 63 | 1008.1 |
| 20260831042505 | 62 | 226 | 6.0 | 10.0 | 0.00 | 0.00 | 0.00 | 67 | 1022.2 |
| 20260831041506 | 61 | 186 | 3.0 | 8.0 | 0.00 | 0.00 | 0.00 | 68 | 1021.7 |
| 20260831041504 | 61 | 186 | 3.0 | 8.0 | 0.00 | 0.00 | 0.00 | 68 | 1007.2 |
| 20260831041006 | 61 | 191 | 4.0 | 8.0 | 0.00 | 0.00 | 0.00 | 71 | 1021.6 |
| 20260831040505 | 60 | 184 | 3.0 | 5.0 | 0.00 | 0.00 | 0.00 | 73 | 1021.5 |
| 20260831040008 | 60 | 184 | 1.0 | 4.0 | 0.00 | 0.00 | 0.00 | 74 | 1021.5 |
| 20260831040004 | 60 | 184 | 1.0 | 4.0 | 0.00 | 0.00 | 0.00 | 74 | 1007.0 |
| 20260831035505 | 60 | 184 | 3.0 | 4.0 | 0.00 | 0.00 | 0.00 | 74 | 1021.5 |
| 20260831035006 | 60 | 184 | 2.0 | 4.0 | 0.00 | 0.00 | 0.00 | 74 | 1021.6 |
| 20260831034505 | 61 | 223 | 1.0 | 4.0 | 0.00 | 0.00 | 0.00 | 74 | 1021.5 |
| 20260831034007 | 61 | 223 | 2.0 | 4.0 | 0.00 | 0.00 | 0.00 | 74 | 1021.5 |
| 20260831033505 | 61 | 200 | 2.0 | 5.0 | 0.00 | 0.00 | 0.00 | 73 | 1021.4 |
| 20260831033006 | 61 | 200 | 2.0 | 5.0 | 0.00 | 0.00 | 0.00 | 74 | 1021.4 |
| 20260831033004 | 61 | 200 | 2.0 | 5.0 | 0.00 | 0.00 | 0.00 | 74 | 1006.9 |
| 20260831032505 | 61 | 200 | 2.0 | 4.0 | 0.00 | 0.00 | 0.00 | 74 | 1021.3 |
| 20260831032007 | 61 | 200 | 3.0 | 4.0 | 0.00 | 0.00 | 0.00 | 74 | 1021.2 |
| 20260831031505 | 61 | 200 | 2.0 | 4.0 | 0.00 | 0.00 | 0.00 | 75 | 1021.3 |
| 20260831031503 | 61 | 200 | 2.0 | 4.0 | 0.00 | 0.00 | 0.00 | 75 | 1006.8 |
| 20260831030505 | 61 | 204 | 2.0 | 5.0 | 0.00 | 0.00 | 0.00 | 76 | 1021.3 |
| 20260831030008 | 61 | 204 | 3.0 | 5.0 | 0.00 | 0.00 | 0.00 | 76 | 1021.3 |
| 20260831030005 | 61 | 204 | 2.0 | 5.0 | 0.00 | 0.00 | 0.00 | 76 | 1006.8 |
| 20260831025505 | 61 | 204 | 1.0 | 5.0 | 0.00 | 0.00 | 0.00 | 76 | 1021.1 |
| 20260831025005 | 61 | 204 | 2.0 | 5.0 | 0.00 | 0.00 | 0.00 | 76 | 1021.0 |
| 20260831024505 | 61 | 204 | 2.0 | 3.0 | 0.00 | 0.00 | 0.00 | 75 | 1020.8 |
| 20260831024005 | 61 | 204 | 1.0 | 4.0 | 0.00 | 0.00 | 0.00 | 75 | 1020.7 |
| 20260831023504 | 61 | 204 | 1.0 | 4.0 | 0.00 | 0.00 | 0.00 | 75 | 1020.7 |
| 20260831023004 | 61 | 204 | 1.0 | 3.0 | 0.00 | 0.00 | 0.00 | 76 | 1006.2 |
| 20260831022505 | 61 | 204 | 2.0 | 3.0 | 0.00 | 0.00 | 0.00 | 77 | 1020.6 |
| 20260831022006 | 61 | 204 | 1.0 | 3.0 | 0.00 | 0.00 | 0.00 | 77 | 1020.3 |
| 20260831021505 | 61 | 204 | 1.0 | 3.0 | 0.00 | 0.00 | 0.00 | 75 | 1020.3 |
| 20260831021503 | 61 | 204 | 1.0 | 3.0 | 0.00 | 0.00 | 0.00 | 75 | 1005.7 |
| 20260831021006 | 61 | 204 | 0.0 | 2.0 | 0.00 | 0.00 | 0.00 | 74 | 1020.1 |
| 20260831020505 | 62 | 204 | 1.0 | 2.0 | 0.00 | 0.00 | 0.00 | 73 | 1020.1 |
| 20260831020007 | 62 | 204 | 1.0 | 2.0 | 0.00 | 0.00 | 0.00 | 74 | 1020.1 |
| 20260831020004 | 62 | 204 | 0.0 | 2.0 | 0.00 | 0.00 | 0.00 | 74 | 1005.5 |
| 20260831015505 | 62 | 204 | 1.0 | 2.0 | 0.00 | 0.00 | 0.00 | 75 | 1020.0 |
| 20260831015005 | 62 | 204 | 1.0 | 2.0 | 0.00 | 0.00 | 0.00 | 74 | 1019.9 |
| 20260831014505 | 62 | 204 | 1.0 | 3.0 | 0.00 | 0.00 | 0.00 | 73 | 1019.9 |
| 20260831014006 | 63 | 204 | 1.0 | 3.0 | 0.00 | 0.00 | 0.00 | 73 | 1019.8 |
| 20260831013504 | 63 | 204 | 2.0 | 3.0 | 0.00 | 0.00 | 0.00 | 72 | 1019.9 |
| 20260831013004 | 64 | 204 | 1.0 | 3.0 | 0.00 | 0.00 | 0.00 | 71 | 1005.2 |
| 20260831012505 | 64 | 204 | 1.0 | 2.0 | 0.00 | 0.00 | 0.00 | 71 | 1019.9 |
| 20260831012006 | 64 | 204 | 1.0 | 3.0 | 0.00 | 0.00 | 0.00 | 71 | 1019.9 |
| 20260831011504 | 64 | 204 | 1.0 | 5.0 | 0.00 | 0.00 | 0.00 | 71 | 1020.0 |
| 20260831011006 | 64 | 204 | 3.0 | 5.0 | 0.00 | 0.00 | 0.00 | 71 | 1020.0 |
| 20260831010506 | 64 | 204 | 2.0 | 6.0 | 0.00 | 0.00 | 0.00 | 70 | 1020.1 |
| 20260831010007 | 64 | 204 | 2.0 | 6.0 | 0.00 | 0.00 | 0.00 | 70 | 1020.1 |
| 20260831010004 | 64 | 204 | 2.0 | 6.0 | 0.00 | 0.00 | 0.00 | 70 | 1005.4 |
| 20260831005504 | 64 | 234 | 2.0 | 5.0 | 0.00 | 0.00 | 0.00 | 70 | 1020.2 |
| 20260831004505 | 64 | 200 | 2.0 | 3.0 | 0.00 | 0.00 | 0.00 | 71 | 1020.1 |
| 20260831004503 | 64 | 200 | 2.0 | 3.0 | 0.00 | 0.00 | 0.00 | 71 | 1005.4 |
| 20260831004006 | 64 | 200 | 2.0 | 5.0 | 0.00 | 0.00 | 0.00 | 70 | 1020.3 |
| 20260831003003 | 64 | 183 | 2.0 | 4.0 | 0.00 | 0.00 | 0.00 | 70 | 1005.6 |
| 20260831002505 | 63 | 325 | 2.0 | 4.0 | 0.00 | 0.00 | 0.00 | 70 | 1020.4 |
| 20260831002006 | 63 | 325 | 2.0 | 2.0 | 0.00 | 0.00 | 0.00 | 71 | 1020.5 |
| 20260831001505 | 63 | 325 | 0.0 | 2.0 | 0.00 | 0.00 | 0.00 | 71 | 1020.5 |
| 20260831001006 | 63 | 325 | 1.0 | 10.0 | 0.00 | 0.00 | 0.00 | 71 | 1020.4 |
| 20260831000507 | 63 | 325 | 4.0 | 11.0 | 0.00 | 0.00 | 0.00 | 71 | 1020.5 |
| 20260831000007 | 64 | 299 | 6.0 | 11.0 | 0.00 | 0.00 | 0.00 | 70 | 1021.0 |
| 20260831000005 | 64 | 299 | 5.0 | 11.0 | 0.00 | 0.00 | 0.00 | 70 | 1006.0 |
| 20260830235505 | 63 | 117 | 3.0 | 6.0 | 0.00 | 0.00 | 0.00 | 70 | 1021.1 |
| 20260830234506 | 62 | 90 | 3.0 | 4.0 | 0.00 | 0.00 | 0.00 | 74 | 1020.8 |
| 20260830234504 | 62 | 90 | 2.0 | 4.0 | 0.00 | 0.00 | 0.00 | 74 | 1005.8 |
| 20260830234005 | 62 | 320 | 0.0 | 3.0 | 0.00 | 0.00 | 0.00 | 73 | 1020.9 |
| 20260830233505 | 62 | 320 | 2.0 | 4.0 | 0.00 | 0.00 | 0.00 | 74 | 1021.0 |
| 20260830233006 | 61 | 320 | 2.0 | 6.0 | 0.00 | 0.00 | 0.00 | 74 | 1021.1 |
| 20260830233003 | 61 | 320 | 1.0 | 6.0 | 0.00 | 0.00 | 0.00 | 74 | 1006.1 |
| 20260830232504 | 62 | 346 | 3.0 | 6.0 | 0.00 | 0.00 | 0.00 | 73 | 1021.2 |
| 20260830232002 | 62 | 305 | 2.0 | 5.0 | 0.00 | 0.00 | 0.00 | 73 | 1021.3 |
| 20260830231505 | 62 | 305 | 2.0 | 8.0 | 0.00 | 0.00 | 0.00 | 72 | 1006.2 |
| 20260830231005 | 62 | 319 | 5.0 | 12.0 | 0.00 | 0.00 | 0.00 | 70 | 1021.4 |
| 20260830230505 | 63 | 293 | 3.0 | 14.0 | 0.00 | 0.00 | 0.00 | 68 | 1021.3 |
| 20260830230006 | 64 | 311 | 11.0 | 16.0 | 0.00 | 0.00 | 0.00 | 64 | 1021.3 |
| 20260830230004 | 64 | 311 | 10.0 | 16.0 | 0.00 | 0.00 | 0.00 | 64 | 1006.3 |
| 20260830225504 | 65 | 308 | 10.0 | 13.0 | 0.00 | 0.00 | 0.00 | 60 | 1021.4 |
| 20260830224506 | 65 | 291 | 5.0 | 9.0 | 0.00 | 0.00 | 0.00 | 55 | 1021.2 |
| 20260830224504 | 65 | 291 | 5.0 | 9.0 | 0.00 | 0.00 | 0.00 | 55 | 1006.1 |
| 20260830223504 | 66 | 311 | 6.0 | 16.0 | 0.00 | 0.00 | 0.00 | 53 | 1020.9 |
| 20260830223006 | 66 | 329 | 7.0 | 19.0 | 0.00 | 0.00 | 0.00 | 54 | 1020.9 |
| 20260830223003 | 66 | 329 | 6.0 | 19.0 | 0.00 | 0.00 | 0.00 | 54 | 1005.7 |
| 20260830221504 | 67 | 290 | 13.0 | 24.0 | 0.00 | 0.00 | 0.00 | 48 | 1005.4 |
| 20260830221006 | 68 | 311 | 12.0 | 24.0 | 0.00 | 0.00 | 0.00 | 47 | 1020.7 |
| 20260830220506 | 68 | 301 | 14.0 | 25.0 | 0.00 | 0.00 | 0.00 | 47 | 1020.7 |
| 20260830220008 | 68 | 301 | 14.0 | 29.0 | 0.00 | 0.00 | 0.00 | 46 | 1020.4 |
| 20260830220003 | 68 | 301 | 14.0 | 29.0 | 0.00 | 0.00 | 0.00 | 46 | 1005.1 |
| 20260830215506 | 69 | 319 | 17.0 | 29.0 | 0.00 | 0.00 | 0.00 | 45 | 1020.2 |
| 20260830215006 | 71 | 298 | 15.0 | 26.0 | 0.00 | 0.00 | 0.00 | 44 | 1019.8 |
| 20260830214505 | 75 | 330 | 10.0 | 43.0 | 0.00 | 0.00 | 0.00 | 41 | 1019.8 |
| 20260830214005 | 79 | 319 | 4.0 | 9.0 | 0.00 | 0.00 | 0.00 | 34 | 1019.4 |
| 20260830213505 | 79 | 224 | 2.0 | 8.0 | 0.00 | 0.00 | 0.00 | 34 | 1018.8 |
| 20260830213005 | 79 | 256 | 2.0 | 4.0 | 0.00 | 0.00 | 0.00 | 32 | 1018.8 |
| 20260830212505 | 79 | 256 | 1.0 | 6.0 | 0.00 | 0.00 | 0.00 | 32 | 1018.8 |
| 20260830212005 | 79 | 256 | 1.0 | 6.0 | 0.00 | 0.00 | 0.00 | 33 | 1018.7 |
| 20260830211504 | 80 | 207 | 2.0 | 4.0 | 0.00 | 0.00 | 0.00 | 34 | 1018.6 |
| 20260830211005 | 80 | 254 | 2.0 | 5.0 | 0.00 | 0.00 | 0.00 | 32 | 1018.5 |
| 20260830210505 | 80 | 254 | 2.0 | 8.0 | 0.00 | 0.00 | 0.00 | 33 | 1018.6 |
| 20260830210006 | 80 | 285 | 4.0 | 8.0 | 0.00 | 0.00 | 0.00 | 32 | 1018.5 |
| 20260830210004 | 80 | 285 | 4.0 | 8.0 | 0.00 | 0.00 | 0.00 | 32 | 1003.0 |
| 20260830205505 | 80 | 247 | 3.0 | 6.0 | 0.00 | 0.00 | 0.00 | 33 | 1018.6 |
| 20260830205005 | 80 | 256 | 3.0 | 5.0 | 0.00 | 0.00 | 0.00 | 33 | 1018.8 |
| 20260830204505 | 79 | 273 | 2.0 | 7.0 | 0.00 | 0.00 | 0.00 | 33 | 1018.8 |
| 20260830204503 | 79 | 273 | 2.0 | 7.0 | 0.00 | 0.00 | 0.00 | 33 | 1003.4 |
| 20260830204005 | 79 | 213 | 3.0 | 9.0 | 0.00 | 0.00 | 0.00 | 33 | 1018.8 |
| 20260830203505 | 79 | 199 | 5.0 | 9.0 | 0.00 | 0.00 | 0.00 | 33 | 1018.6 |
| 20260830203009 | 79 | 207 | 3.0 | 7.0 | 0.00 | 0.00 | 0.00 | 31 | 1003.2 |
| 20260830203007 | 79 | 207 | 3.0 | 7.0 | 0.00 | 0.00 | 0.00 | 31 | 1018.6 |
| 20260830202505 | 79 | 227 | 3.0 | 8.0 | 0.00 | 0.00 | 0.00 | 34 | 1018.7 |
| 20260830201504 | 80 | 163 | 5.0 | 11.0 | 0.00 | 0.00 | 0.00 | 33 | 1018.7 |
| 20260830201006 | 80 | 148 | 8.0 | 11.0 | 0.00 | 0.00 | 0.00 | 33 | 1018.6 |
| 20260830200505 | 80 | 164 | 3.0 | 10.0 | 0.00 | 0.00 | 0.00 | 33 | 1018.6 |
| 20260830200006 | 80 | 317 | 5.0 | 10.0 | 0.00 | 0.00 | 0.00 | 31 | 1018.5 |
| 20260830200004 | 80 | 317 | 4.0 | 10.0 | 0.00 | 0.00 | 0.00 | 31 | 1003.1 |
| 20260830194505 | 80 | 300 | 4.0 | 8.0 | 0.00 | 0.00 | 0.00 | 31 | 1018.7 |
| 20260830194503 | 80 | 300 | 3.0 | 8.0 | 0.00 | 0.00 | 0.00 | 31 | 1003.3 |
| 20260830194006 | 80 | 238 | 5.0 | 8.0 | 0.00 | 0.00 | 0.00 | 31 | 1018.8 |
| 20260830193505 | 81 | 290 | 5.0 | 11.0 | 0.00 | 0.00 | 0.00 | 31 | 1018.6 |
| 20260830193006 | 81 | 292 | 6.0 | 11.0 | 0.00 | 0.00 | 0.00 | 29 | 1018.7 |
| 20260830193003 | 81 | 292 | 6.0 | 11.0 | 0.00 | 0.00 | 0.00 | 29 | 1003.2 |
| 20260830192504 | 81 | 272 | 4.0 | 9.0 | 0.00 | 0.00 | 0.00 | 30 | 1018.7 |
| 20260830192005 | 81 | 262 | 4.0 | 11.0 | 0.00 | 0.00 | 0.00 | 30 | 1018.7 |
| 20260830191505 | 82 | 259 | 7.0 | 11.0 | 0.00 | 0.00 | 0.00 | 30 | 1018.8 |
| 20260830191006 | 82 | 144 | 6.0 | 12.0 | 0.00 | 0.00 | 0.00 | 30 | 1018.8 |
| 20260830190012 | 81 | 274 | 4.0 | 10.0 | 0.00 | 0.00 | 0.00 | 29 | 1003.6 |
| 20260830190007 | 81 | 274 | 5.0 | 10.0 | 0.00 | 0.00 | 0.00 | 29 | 1019.1 |
| 20260830185505 | 80 | 267 | 1.0 | 8.0 | 0.00 | 0.00 | 0.00 | 31 | 1019.1 |
| 20260830185006 | 80 | 247 | 2.0 | 8.0 | 0.00 | 0.00 | 0.00 | 32 | 1019.1 |
| 20260830184504 | 80 | 65 | 2.0 | 6.0 | 0.00 | 0.00 | 0.00 | 32 | 1019.0 |
| 20260830184005 | 80 | 329 | 3.0 | 8.0 | 0.00 | 0.00 | 0.00 | 33 | 1019.1 |
| 20260830183006 | 79 | 287 | 2.0 | 11.0 | 0.00 | 0.00 | 0.00 | 35 | 1019.2 |
| 20260830183003 | 79 | 287 | 2.0 | 11.0 | 0.00 | 0.00 | 0.00 | 35 | 1003.6 |
| 20260830182505 | 79 | 304 | 6.0 | 12.0 | 0.00 | 0.00 | 0.00 | 34 | 1019.2 |
| 20260830182006 | 79 | 297 | 6.0 | 14.0 | 0.00 | 0.00 | 0.00 | 35 | 1019.3 |
| 20260830181504 | 79 | 301 | 8.0 | 13.0 | 0.00 | 0.00 | 0.00 | 36 | 1019.4 |
| 20260830180505 | 79 | 256 | 5.0 | 9.0 | 0.00 | 0.00 | 0.00 | 34 | 1019.5 |
| 20260830180008 | 78 | 257 | 3.0 | 9.0 | 0.00 | 0.00 | 0.00 | 35 | 1003.9 |
| 20260830180006 | 78 | 257 | 4.0 | 9.0 | 0.00 | 0.00 | 0.00 | 35 | 1019.5 |
| 20260830174505 | 78 | 287 | 5.0 | 16.0 | 0.00 | 0.00 | 0.00 | 36 | 1019.7 |
| 20260830174503 | 78 | 287 | 4.0 | 16.0 | 0.00 | 0.00 | 0.00 | 36 | 1004.2 |
| 20260830174007 | 78 | 279 | 5.0 | 16.0 | 0.00 | 0.00 | 0.00 | 39 | 1019.8 |
| 20260830173505 | 77 | 279 | 6.0 | 11.0 | 0.00 | 0.00 | 0.00 | 37 | 1020.0 |
| 20260830173006 | 77 | 201 | 4.0 | 12.0 | 0.00 | 0.00 | 0.00 | 37 | 1004.5 |
| 20260830172504 | 77 | 294 | 4.0 | 12.0 | 0.00 | 0.00 | 0.00 | 40 | 1020.0 |
| 20260830172005 | 76 | 246 | 4.0 | 16.0 | 0.00 | 0.00 | 0.00 | 40 | 1020.0 |
| 20260830171506 | 76 | 306 | 7.0 | 18.0 | 0.00 | 0.00 | 0.00 | 39 | 1020.1 |
| 20260830171504 | 76 | 306 | 7.0 | 18.0 | 0.00 | 0.00 | 0.00 | 39 | 1004.6 |
| 20260830171005 | 76 | 310 | 11.0 | 18.0 | 0.00 | 0.00 | 0.00 | 40 | 1020.1 |
| 20260830170506 | 77 | 292 | 6.0 | 14.0 | 0.00 | 0.00 | 0.00 | 39 | 1020.3 |
| 20260830170007 | 76 | 289 | 5.0 | 13.0 | 0.00 | 0.00 | 0.00 | 41 | 1020.2 |
| 20260830170003 | 76 | 289 | 4.0 | 13.0 | 0.00 | 0.00 | 0.00 | 41 | 1004.6 |
| 20260830165505 | 76 | 299 | 7.0 | 13.0 | 0.00 | 0.00 | 0.00 | 38 | 1020.2 |
| 20260830165006 | 76 | 282 | 5.0 | 10.0 | 0.00 | 0.00 | 0.00 | 41 | 1020.2 |
| 20260830164508 | 75 | 308 | 4.0 | 10.0 | 0.00 | 0.00 | 0.00 | 42 | 1004.6 |
| 20260830164505 | 75 | 308 | 4.0 | 10.0 | 0.00 | 0.00 | 0.00 | 42 | 1020.1 |
| 20260830164006 | 74 | 248 | 5.0 | 8.0 | 0.00 | 0.00 | 0.00 | 42 | 1020.0 |
| 20260830163504 | 74 | 246 | 4.0 | 9.0 | 0.00 | 0.00 | 0.00 | 45 | 1020.0 |
| 20260830163007 | 72 | 250 | 4.0 | 9.0 | 0.00 | 0.00 | 0.00 | 46 | 1020.0 |
| 20260830163003 | 72 | 250 | 3.0 | 9.0 | 0.00 | 0.00 | 0.00 | 46 | 1004.5 |
| 20260830162505 | 71 | 266 | 5.0 | 9.0 | 0.00 | 0.00 | 0.00 | 47 | 1020.1 |
| 20260830162006 | 71 | 231 | 2.0 | 6.0 | 0.00 | 0.00 | 0.00 | 49 | 1020.1 |
| 20260830161504 | 70 | 224 | 1.0 | 5.0 | 0.00 | 0.00 | 0.00 | 52 | 1004.7 |
| 20260830161006 | 70 | 262 | 1.0 | 7.0 | 0.00 | 0.00 | 0.00 | 52 | 1020.1 |
| 20260830160506 | 69 | 229 | 3.0 | 7.0 | 0.00 | 0.00 | 0.00 | 51 | 1020.1 |
| 20260830160011 | 69 | 243 | 3.0 | 10.0 | 0.00 | 0.00 | 0.00 | 53 | 1004.5 |
| 20260830160007 | 69 | 243 | 3.0 | 10.0 | 0.00 | 0.00 | 0.00 | 53 | 1020.1 |
| 20260830155504 | 69 | 276 | 5.0 | 10.0 | 0.00 | 0.00 | 0.00 | 51 | 1020.0 |
| 20260830155007 | 69 | 229 | 5.0 | 9.0 | 0.00 | 0.00 | 0.00 | 53 | 1019.9 |
| 20260830154506 | 69 | 212 | 5.0 | 9.0 | 0.00 | 0.00 | 0.00 | 53 | 1019.8 |
| 20260830153006 | 68 | 231 | 5.0 | 9.0 | 0.00 | 0.00 | 0.00 | 56 | 1019.7 |
| 20260830153003 | 68 | 231 | 5.0 | 9.0 | 0.00 | 0.00 | 0.00 | 56 | 1004.1 |
| 20260830152506 | 68 | 238 | 4.0 | 7.0 | 0.00 | 0.00 | 0.00 | 56 | 1019.7 |
| 20260830152006 | 67 | 226 | 4.0 | 9.0 | 0.00 | 0.00 | 0.00 | 56 | 1019.7 |
| 20260830151505 | 67 | 239 | 5.0 | 9.0 | 0.00 | 0.00 | 0.00 | 55 | 1019.8 |
| 20260830151503 | 67 | 239 | 4.0 | 9.0 | 0.00 | 0.00 | 0.00 | 55 | 1004.2 |
| 20260830151006 | 67 | 245 | 4.0 | 8.0 | 0.00 | 0.00 | 0.00 | 58 | 1019.6 |
| 20260830150504 | 66 | 185 | 4.0 | 7.0 | 0.00 | 0.00 | 0.00 | 59 | 1019.8 |
| 20260830150006 | 66 | 281 | 3.0 | 9.0 | 0.00 | 0.00 | 0.00 | 59 | 1019.6 |
| 20260830150003 | 66 | 281 | 3.0 | 9.0 | 0.00 | 0.00 | 0.00 | 59 | 1004.1 |
| 20260830145504 | 66 | 214 | 4.0 | 9.0 | 0.00 | 0.00 | 0.00 | 59 | 1019.6 |
| 20260830145006 | 66 | 214 | 3.0 | 9.0 | 0.00 | 0.00 | 0.00 | 58 | 1019.7 |
| 20260830144505 | 66 | 247 | 5.0 | 8.0 | 0.00 | 0.00 | 0.00 | 58 | 1019.6 |
| 20260830144503 | 66 | 247 | 4.0 | 8.0 | 0.00 | 0.00 | 0.00 | 58 | 1004.1 |
| 20260830144005 | 66 | 236 | 5.0 | 10.0 | 0.00 | 0.00 | 0.00 | 58 | 1019.7 |
| 20260830143505 | 66 | 221 | 5.0 | 10.0 | 0.00 | 0.00 | 0.00 | 57 | 1019.6 |
| 20260830143006 | 66 | 227 | 5.0 | 11.0 | 0.00 | 0.00 | 0.00 | 56 | 1019.6 |
| 20260830143004 | 66 | 227 | 4.0 | 11.0 | 0.00 | 0.00 | 0.00 | 56 | 1004.1 |
| 20260830142504 | 66 | 240 | 5.0 | 11.0 | 0.00 | 0.00 | 0.00 | 56 | 1019.6 |
| 20260830142005 | 66 | 257 | 5.0 | 9.0 | 0.00 | 0.00 | 0.00 | 57 | 1019.7 |
| 20260830141505 | 66 | 220 | 4.0 | 10.0 | 0.00 | 0.00 | 0.00 | 58 | 1019.5 |
| 20260830141502 | 66 | 220 | 3.0 | 10.0 | 0.00 | 0.00 | 0.00 | 58 | 1004.0 |
| 20260830140505 | 65 | 174 | 3.0 | 7.0 | 0.00 | 0.00 | 0.00 | 58 | 1019.4 |
| 20260830140007 | 65 | 188 | 3.0 | 6.0 | 0.00 | 0.00 | 0.00 | 58 | 1019.4 |
| 20260830140003 | 65 | 188 | 3.0 | 6.0 | 0.00 | 0.00 | 0.00 | 58 | 1003.8 |
| 20260830135005 | 64 | 205 | 4.0 | 11.0 | 0.00 | 0.00 | 0.00 | 58 | 1019.4 |
| 20260830134509 | 64 | 165 | 4.0 | 11.0 | 0.00 | 0.00 | 0.00 | 59 | 1003.9 |
| 20260830134005 | 64 | 191 | 4.0 | 10.0 | 0.00 | 0.00 | 0.00 | 59 | 1019.4 |
| 20260830133504 | 64 | 223 | 4.0 | 8.0 | 0.00 | 0.00 | 0.00 | 59 | 1019.5 |
| 20260830133006 | 63 | 243 | 4.0 | 7.0 | 0.00 | 0.00 | 0.00 | 59 | 1019.4 |
| 20260830132005 | 63 | 192 | 4.0 | 7.0 | 0.00 | 0.00 | 0.00 | 60 | 1019.3 |
| 20260830131503 | 62 | 194 | 2.0 | 8.0 | 0.00 | 0.00 | 0.00 | 61 | 1003.9 |
| 20260830131006 | 62 | 219 | 4.0 | 8.0 | 0.00 | 0.00 | 0.00 | 61 | 1019.2 |
| 20260830130505 | 62 | 175 | 5.0 | 8.0 | 0.00 | 0.00 | 0.00 | 62 | 1019.1 |
| 20260830130006 | 61 | 209 | 3.0 | 7.0 | 0.00 | 0.00 | 0.00 | 63 | 1019.0 |
| 20260830130003 | 61 | 209 | 3.0 | 7.0 | 0.00 | 0.00 | 0.00 | 63 | 1003.6 |
| 20260830125005 | 60 | 202 | 2.0 | 3.0 | 0.00 | 0.00 | 0.00 | 65 | 1018.8 |
| 20260830124507 | 59 | 202 | 0.0 | 3.0 | 0.00 | 0.00 | 0.00 | 64 | 1003.5 |
| 20260830124505 | 59 | 202 | 1.0 | 3.0 | 0.00 | 0.00 | 0.00 | 64 | 1018.9 |
| 20260830124006 | 60 | 202 | 1.0 | 2.0 | 0.00 | 0.00 | 0.00 | 63 | 1018.9 |
| 20260830123505 | 60 | 202 | 1.0 | 3.0 | 0.00 | 0.00 | 0.00 | 62 | 1018.8 |
| 20260830123005 | 61 | 202 | 0.0 | 4.0 | 0.00 | 0.00 | 0.00 | 61 | 1018.8 |
| 20260830123003 | 61 | 202 | 0.0 | 4.0 | 0.00 | 0.00 | 0.00 | 61 | 1003.5 |
| 20260830122505 | 61 | 202 | 3.0 | 4.0 | 0.00 | 0.00 | 0.00 | 61 | 1018.9 |
| 20260830122006 | 60 | 202 | 2.0 | 4.0 | 0.00 | 0.00 | 0.00 | 61 | 1018.9 |
| 20260830121504 | 60 | 202 | 1.0 | 2.0 | 0.00 | 0.00 | 0.00 | 61 | 1003.5 |
| 20260830121005 | 61 | 202 | 0.0 | 3.0 | 0.00 | 0.00 | 0.00 | 61 | 1018.8 |
| 20260830120006 | 60 | 202 | 2.0 | 4.0 | 0.00 | 0.00 | 0.00 | 62 | 1018.7 |
| 20260830120004 | 60 | 202 | 2.0 | 4.0 | 0.00 | 0.00 | 0.00 | 62 | 1003.4 |
| 20260830115505 | 59 | 202 | 1.0 | 2.0 | 0.00 | 0.00 | 0.00 | 63 | 1018.6 |
| 20260830115005 | 60 | 202 | 1.0 | 4.0 | 0.00 | 0.00 | 0.00 | 63 | 1018.7 |
| 20260830114504 | 60 | 202 | 2.0 | 4.0 | 0.00 | 0.00 | 0.00 | 62 | 1018.6 |
| 20260830114033 | 61 | 202 | 1.0 | 5.0 | 0.00 | 0.00 | 0.00 | 60 | 1018.6 |
| 20260830113008 | 63 | 161 | 2.0 | 7.0 | 0.00 | 0.00 | 0.00 | 56 | 1003.3 |
| 20260830112505 | 63 | 167 | 5.0 | 9.0 | 0.00 | 0.00 | 0.00 | 56 | 1018.7 |
| 20260830112007 | 63 | 176 | 6.0 | 9.0 | 0.00 | 0.00 | 0.00 | 56 | 1018.7 |
| 20260830111505 | 63 | 187 | 6.0 | 7.0 | 0.00 | 0.00 | 0.00 | 56 | 1018.6 |
| 20260830111005 | 63 | 181 | 4.0 | 6.0 | 0.00 | 0.00 | 0.00 | 56 | 1018.6 |
| 20260830110505 | 63 | 181 | 4.0 | 6.0 | 0.00 | 0.00 | 0.00 | 56 | 1018.6 |
| 20260830110007 | 63 | 173 | 4.0 | 7.0 | 0.00 | 0.00 | 0.00 | 56 | 1018.6 |
| 20260830110003 | 63 | 173 | 3.0 | 7.0 | 0.00 | 0.00 | 0.00 | 56 | 1003.2 |
| 20260830105006 | 63 | 173 | 6.0 | 9.0 | 0.00 | 0.00 | 0.00 | 55 | 1018.4 |
| 20260830104505 | 64 | 180 | 6.0 | 9.0 | 0.00 | 0.00 | 0.00 | 55 | 1018.4 |
| 20260830104503 | 64 | 166 | 6.0 | 9.0 | 0.00 | 0.00 | 0.00 | 55 | 1002.9 |
| 20260830103505 | 64 | 168 | 5.0 | 8.0 | 0.00 | 0.00 | 0.00 | 55 | 1018.4 |
| 20260830103006 | 64 | 190 | 6.0 | 11.0 | 0.00 | 0.00 | 0.00 | 55 | 1018.5 |
| 20260830103004 | 64 | 190 | 5.0 | 11.0 | 0.00 | 0.00 | 0.00 | 55 | 1003.0 |
| 20260830102506 | 64 | 161 | 7.0 | 11.0 | 0.00 | 0.00 | 0.00 | 54 | 1018.5 |
| 20260830102005 | 64 | 171 | 7.0 | 10.0 | 0.00 | 0.00 | 0.00 | 54 | 1018.6 |
| 20260830101505 | 64 | 160 | 7.0 | 9.0 | 0.00 | 0.00 | 0.00 | 55 | 1018.5 |
| 20260830101503 | 64 | 160 | 6.0 | 9.0 | 0.00 | 0.00 | 0.00 | 55 | 1003.0 |
| 20260830101006 | 64 | 159 | 6.0 | 9.0 | 0.00 | 0.00 | 0.00 | 55 | 1018.5 |
| 20260830100504 | 64 | 153 | 6.0 | 10.0 | 0.00 | 0.00 | 0.00 | 55 | 1018.4 |
| 20260830100006 | 64 | 161 | 7.0 | 10.0 | 0.00 | 0.00 | 0.00 | 55 | 1018.5 |
| 20260830094506 | 64 | 181 | 4.0 | 7.0 | 0.00 | 0.00 | 0.00 | 56 | 1018.5 |
| 20260830094503 | 64 | 181 | 4.0 | 7.0 | 0.00 | 0.00 | 0.00 | 56 | 1002.9 |
| 20260830094006 | 64 | 169 | 5.0 | 7.0 | 0.00 | 0.00 | 0.00 | 56 | 1018.5 |
| 20260830093505 | 64 | 161 | 4.0 | 6.0 | 0.00 | 0.00 | 0.00 | 56 | 1018.6 |
| 20260830093006 | 64 | 178 | 4.0 | 6.0 | 0.00 | 0.00 | 0.00 | 57 | 1018.6 |
| 20260830093003 | 64 | 178 | 3.0 | 6.0 | 0.00 | 0.00 | 0.00 | 57 | 1003.0 |
| 20260830092505 | 63 | 178 | 4.0 | 6.0 | 0.00 | 0.00 | 0.00 | 57 | 1018.6 |
| 20260830091506 | 63 | 174 | 2.0 | 7.0 | 0.00 | 0.00 | 0.00 | 59 | 1018.8 |
| 20260830091503 | 63 | 174 | 2.0 | 7.0 | 0.00 | 0.00 | 0.00 | 59 | 1003.2 |
| 20260830090009 | 61 | 219 | 1.0 | 4.0 | 0.00 | 0.00 | 0.00 | 65 | 1002.9 |
| 20260830090006 | 61 | 219 | 1.0 | 4.0 | 0.00 | 0.00 | 0.00 | 65 | 1018.6 |
| 20260830085006 | 61 | 178 | 2.0 | 5.0 | 0.00 | 0.00 | 0.00 | 65 | 1018.6 |
| 20260830084505 | 61 | 227 | 3.0 | 5.0 | 0.00 | 0.00 | 0.00 | 65 | 1018.5 |
| 20260830084502 | 61 | 227 | 3.0 | 5.0 | 0.00 | 0.00 | 0.00 | 65 | 1002.9 |
| 20260830084005 | 60 | 227 | 4.0 | 6.0 | 0.00 | 0.00 | 0.00 | 66 | 1018.5 |
| 20260830083504 | 59 | 162 | 4.0 | 5.0 | 0.00 | 0.00 | 0.00 | 69 | 1018.5 |
| 20260830083005 | 58 | 227 | 2.0 | 3.0 | 0.00 | 0.00 | 0.00 | 71 | 1018.6 |
| 20260830083003 | 58 | 227 | 1.0 | 3.0 | 0.00 | 0.00 | 0.00 | 71 | 1003.0 |
| 20260830082504 | 58 | 227 | 0.0 | 1.0 | 0.00 | 0.00 | 0.00 | 73 | 1018.5 |
| 20260830082005 | 58 | 227 | 0.0 | 1.0 | 0.00 | 0.00 | 0.00 | 72 | 1018.4 |
| 20260830081504 | 58 | 227 | 0.0 | 1.0 | 0.00 | 0.00 | 0.00 | 72 | 1018.4 |
| 20260830081502 | 58 | 227 | 0.0 | 1.0 | 0.00 | 0.00 | 0.00 | 72 | 1002.8 |
| 20260830080504 | 59 | 227 | 0.0 | 2.0 | 0.00 | 0.00 | 0.00 | 72 | 1018.5 |
| 20260830080003 | 59 | 227 | 0.0 | 3.0 | 0.00 | 0.00 | 0.00 | 72 | 1003.0 |
| 20260830075504 | 59 | 227 | 2.0 | 3.0 | 0.00 | 0.00 | 0.00 | 71 | 1018.6 |
| 20260830075006 | 59 | 227 | 1.0 | 4.0 | 0.00 | 0.00 | 0.00 | 72 | 1018.6 |
| 20260830074505 | 59 | 227 | 3.0 | 4.0 | 0.00 | 0.00 | 0.00 | 71 | 1018.7 |
| 20260830074503 | 59 | 227 | 2.0 | 4.0 | 0.00 | 0.00 | 0.00 | 71 | 1003.2 |
| 20260830074006 | 59 | 227 | 2.0 | 4.0 | 0.00 | 0.00 | 0.00 | 71 | 1018.8 |
| 20260830073505 | 59 | 227 | 3.0 | 5.0 | 0.00 | 0.00 | 0.00 | 71 | 1018.8 |
| 20260830073006 | 59 | 227 | 2.0 | 5.0 | 0.00 | 0.00 | 0.00 | 72 | 1018.8 |
| 20260830073003 | 59 | 227 | 2.0 | 5.0 | 0.00 | 0.00 | 0.00 | 72 | 1003.2 |
| 20260830072504 | 59 | 227 | 3.0 | 4.0 | 0.00 | 0.00 | 0.00 | 72 | 1018.9 |
| 20260830071504 | 58 | 227 | 1.0 | 3.0 | 0.00 | 0.00 | 0.00 | 72 | 1003.4 |
| 20260830071001 | 58 | 227 | 1.0 | 3.0 | 0.00 | 0.00 | 0.00 | 72 | 1019.2 |
| 20260830070505 | 58 | 227 | 0.0 | 3.0 | 0.00 | 0.00 | 0.00 | 72 | 1019.3 |
| 20260830070008 | 58 | 227 | 1.0 | 3.0 | 0.00 | 0.00 | 0.00 | 72 | 1019.4 |
| 20260830070004 | 58 | 227 | 1.0 | 3.0 | 0.00 | 0.00 | 0.00 | 72 | 1003.8 |
| 20260830065007 | 58 | 227 | 3.0 | 5.0 | 0.00 | 0.00 | 0.00 | 72 | 1019.6 |
| 20260830064507 | 58 | 227 | 3.0 | 5.0 | 0.00 | 0.00 | 0.00 | 71 | 1004.0 |
| 20260830064505 | 58 | 227 | 4.0 | 5.0 | 0.00 | 0.00 | 0.00 | 71 | 1019.7 |
| 20260830064007 | 58 | 227 | 2.0 | 4.0 | 0.00 | 0.00 | 0.00 | 72 | 1019.7 |
| 20260830063504 | 58 | 227 | 2.0 | 3.0 | 0.00 | 0.00 | 0.00 | 73 | 1019.8 |
| 20260830063007 | 58 | 227 | 2.0 | 4.0 | 0.00 | 0.00 | 0.00 | 73 | 1019.7 |
| 20260830063003 | 58 | 227 | 1.0 | 4.0 | 0.00 | 0.00 | 0.00 | 73 | 1004.1 |
| 20260830062505 | 58 | 227 | 3.0 | 4.0 | 0.00 | 0.00 | 0.00 | 73 | 1019.8 |
| 20260830061505 | 58 | 227 | 0.0 | 4.0 | 0.00 | 0.00 | 0.00 | 74 | 1020.0 |
| 20260830061502 | 58 | 227 | 0.0 | 4.0 | 0.00 | 0.00 | 0.00 | 74 | 1004.4 |
| 20260830061006 | 58 | 227 | 3.0 | 5.0 | 0.00 | 0.00 | 0.00 | 73 | 1019.9 |
| 20260830060505 | 57 | 227 | 2.0 | 6.0 | 0.00 | 0.00 | 0.00 | 75 | 1019.9 |
| 20260830060007 | 57 | 227 | 2.0 | 6.0 | 0.00 | 0.00 | 0.00 | 76 | 1020.0 |
| 20260830055006 | 56 | 227 | 3.0 | 6.0 | 0.00 | 0.00 | 0.00 | 77 | 1020.1 |